Flag for Ukraine Weather past 2 weeks in Chernobyl, Ukraine

Now
55 °F

Cool.


Feels Like: 52 °F
Forecast: 52 / 62 °F
Wind: 15 mph from Southeast

Location: Hostomel

Current Time: Sep 21, 2014 at 6:13:16 PM

Latest Report: Sep 21, 2014 at 5:00 PM


Visibility: 4 mi

Pressure: 29.92 "Hg

Humidity: 94%

Dew point: 54 °F

Location of ChernobylLocation

Historic Weather in Chernobyl — Graph

°F

Chernobyl temperature yesterday

Maximum temperature yesterday: 70 °F (at 3:00 PM)
Minimum temperature yesterday: 39 °F (at 6:00 AM)
Average temperature yesterday: 55 °F

Past Weeks' High & Low Weather Summary

 TemperatureHumidityPressure
High79 °F (Sep 8, 3:00 PM)100% (Sep 9, 7:00 AM)30.36 "Hg (Sep 9, 7:00 AM)
Low39 °F (Sep 19, 6:00 AM)20% (Sep 20, 4:00 PM)29.92 "Hg (Sep 21, 5:00 PM)
Average61 °F58%30.17 "Hg
* Reported Sep 6 5:00 PM — Sep 21 5:00 PM, Chernobyl, Weather by CustomWeather, © 2014

Note: Actual official high and low records may vary slightly from our data, if they occured in-between our weather recording intervals... More about our weather records

Advertising

Chernobyl weather history for previous 24 hours

 ConditionsComfort  
Time TempWeatherWind HumidityBarometerVisibility
5:00 PM
Sep 21
55 °FCool.15 mph94%29.92 "Hg4 mi
4:00 PM55 °FCool.13 mph94%29.95 "Hg4 mi
3:00 PM59 °FCool.20 mph72%29.95 "HgN/A
2:00 PM61 °FCool.13 mph63%29.95 "HgN/A
1:00 PM61 °FCool.13 mph63%29.95 "HgN/A
12:00 PM61 °FRefreshingly cool.10 mph59%29.98 "HgN/A
11:00 AM61 °FRefreshingly cool.10 mph59%29.98 "HgN/A
10:00 AM59 °FCool.10 mph63%29.98 "HgN/A
9:00 AM57 °FRefreshingly cool.6 mph59%29.98 "HgN/A
8:00 AM57 °FRefreshingly cool.8 mph51%29.98 "HgN/A
7:00 AM55 °FClear.8 mph55%29.98 "Hg10 mi
6:00 AM57 °FClear.3 mph55%29.98 "Hg10 mi
5:00 AM57 °FClear.8 mph51%29.98 "Hg10 mi
4:00 AM59 °FClear.8 mph45%29.98 "Hg10 mi
3:00 AM59 °FClear.8 mph42%30.01 "Hg10 mi
2:00 AM59 °FClear.3 mph45%30.01 "Hg10 mi
1:00 AM59 °FClear.3 mph48%30.04 "Hg10 mi
12:30 AM59 °FClear.3 mph48%30.04 "Hg10 mi
12:00 AM59 °FClear.3 mph45%30.04 "Hg10 mi
11:30 PM
Sep 20
59 °FClear.3 mph45%30.07 "Hg10 mi
11:00 PM59 °FClear.3 mph45%30.07 "Hg10 mi
10:00 PM59 °FClear.6 mph39%30.07 "Hg10 mi
9:00 PM59 °FClear.3 mph39%30.07 "Hg10 mi
8:00 PM63 °FSunny.3 mph32%30.07 "Hg10 mi
Weather by CustomWeather, © 2014

See weather overviewHow to use our weather pages